SCP
3 3 2 2 2 2 3 3 3 3 2 2 3 2 2 2 2 2 2 2 2 2 3 3 3 2 2 2 2 2 2 1 1 1 1 1 1 1 1 1 0 0 0
3 3 2 2 2 2 2 2 2 2 2 2 3 2 2 2 2 2 2 2 2 2 3 3 3 2 2 2 2 2 2 2 1 1 1 1 1 1 1 1 1 0 0
3 3 2 2 2 2 2 2 2 1 1 2 2 2 2 2 2 2 2 2 2 2 2 3 3 3 2 2 2 2 2 2 1 1 1 1 1 1 1 1 1 0 0
3 3 2 2 2 2 2 2 2 1 1 1 1 1 2 2 3 3 2 2 2 2 2 2 2 3 2 2 2 2 2 2 2 1 1 1 1 1 1 1 1 1 0
2 2 2 2 2 2 2 2 2 2 1 1 1 1 1 2 4 4 3 2 2 2 2 2 2 2 2 2 2 2 2 2 2 1 1 1 1 1 1 1 1 1 1
2 2 2 2 2 2 1 1 1 1 1 1 1 1 1 2 4 5 4 3 2 2 1 1 2 2 2 2 2 2 2 2 2 1 1 1 1 1 1 1 1 1 1
1 1 1 1 1 1 1 1 1 1 1 1 1 1 1 1 3 4 4 3 2 2 1 1 1 1 2 2 2 2 2 2 2 1 1 1 1 1 1 1 1 1 1
1 1 1 1 0 0 1 1 1 1 1 1 1 1 1 1 1 3 3 2 2 1 1 1 1 1 1 1 1 1 2 2 2 1 1 1 1 1 1 1 1 1 1
0 0 0 0 0 0 0 0 0 0 0 1 1 1 1 1 1 1 1 1 1 1 1 1 1 1 1 1 1 1 1 1 1 1 1 1 1 1 1 1 1 1 1
0 0 0 0 0 0 0 0 0 0 0 0 1 1 1 1 0 0 0 0 1 1 1 1 1 1 1 1 1 1 1 1 1 1 1 1 1 1 1 1 1 1 0
0 0 0 0 0 0 0 0 0 0 0 0 0 0 0 0 0 0 0 0 0 0 0 0 1 1 1 1 1 1 1 1 1 1 1 1 1 1 1 1 1 1 0
0 0 0 0 0 0 0 0 0 0 0 0 0 0 0 0 0 0 0 0 0 0 0 0 0 1 1 1 1 1 1 1 1 1 1 1 1 1 1 0 0 0 0
0 0 0 0 0 0 0 0 0 0 0 0 0 0 0 0 0 0 0 0 0 0 0 0 0 1 1 1 1 1 1 1 0 0 0 1 1 1 1 1 0 1 1
0 0 0 0 0 0 0 0 0 0 0 0 0 0 0 0 0 0 0 0 0 0 0 0 0 1 1 1 1 1 1 0 0 0 0 0 0 0 1 0 0 0 0
0 0 0 0 0 0 0 0 0 0 0 0 0 0 0 0 0 0 0 0 0 0 0 0 0 0 0 0 0 0 1 0 0 0 0 0 0 0 0 0 0 0 0
0 0 0 0 0 0 0 0 0 0 0 0 0 0 0 0 0 0 0 0 0 0 0 0 0 1 0 0 0 0 0 0 0 0 0 0 0 0 0 0 0 0 0
0 0 0 0 0 0 0 0 0 0 0 0 0 0 0 0 0 0 0 0 0 0 0 0 1 1 0 0 0 0 0 0 0 0 0 0 0 0 0 0 0 0 0
0 0 0 0 0 0 0 0 0 0 0 0 0 0 0 0 0 0 0 0 0 0 0 0 1 1 0 1 0 0 0 0 0 0 0 0 0 0 0 0 0 0 0
0 0 0 0 0 0 0 0 0 0 0 0 0 0 0 0 0 0 0 0 0 0 0 0 1 1 1 1 1 0 0 0 0 0 0 0 0 0 0 0 0 0 0
0 0 0 0 0 0 0 0 0 0 0 0 0 0 0 0 0 0 0 0 0 0 0 1 1 1 1 1 0 0 0 0 0 0 0 0 0 0 0 0 0 0 0
0 0 0 0 0 0 0 0 0 0 0 0 0 0 0 0 0 0 0 0 0 0 0 1 1 1 1 1 0 0 0 0 0 0 0 0 0 0 0 0 0 0 0
0 0 0 0 0 0 0 0 0 0 0 0 0 0 0 0 0 0 0 0 0 0 0 1 1 1 1 0 0 0 0 0 0 0 0 0 0 0 0 0 0 0 0
0 0 0 0 0 0 0 0 0 0 0 0 0 0 0 0 0 0 0 0 0 0 0 0 1 1 1 0 0 0 0 0 0 0 0 0 0 0 0 0 0 0 0
0 0 0 0 0 0 0 0 0 0 0 0 0 0 0 0 0 0 0 0 0 0 0 0 0 0 0 0 0 0 0 0 0 0 0 0 0 0 0 0 0 0 0
0 0 0 0 0 0 0 0 0 0 0 0 0 0 0 0 0 0 0 0 0 0 0 0 0 0 0 0 0 0 0 0 0 0 0 0 0 0 0 0 0 0 0
0 0 0 0 0 0 0 0 0 0 0 0 0 0 0 0 0 0 0 0 0 0 0 0 0 0 0 0 0 0 0 0 0 0 0 0 0 0 0 0 0 0 0
Wind_Speed
3 2 2 2 2 2 3 4 5 7 8 8 8 9 9 9 8 7 5 13 14 17 20 21 20 20 21 21 20 20 20 20 18 17 16 16 16 15 15 15 14 13 13
2 1 1 1 1 2 2 4 5 6 6 6 8 9 9 8 8 8 7 8 13 15 18 20 21 22 22 22 22 21 20 20 19 18 18 17 16 16 16 15 15 14 13
2 1 1 1 2 2 3 3 4 4 5 6 7 8 7 8 7 8 8 6 7 13 17 19 19 21 21 22 22 22 21 20 19 19 19 18 17 16 16 16 15 15 14
2 1 1 1 2 2 2 2 3 3 4 5 5 6 6 6 8 9 8 7 7 8 13 20 20 21 22 23 23 22 21 21 20 20 20 19 19 18 17 17 16 15 15
2 1 1 1 1 1 2 3 2 2 4 4 5 6 6 6 7 9 9 10 9 9 9 14 21 22 23 24 23 22 22 21 21 21 21 21 20 19 18 18 17 16 16
1 1 1 1 1 1 2 2 3 3 3 4 5 6 5 6 6 7 9 9 9 12 11 11 11 15 22 22 22 22 22 22 21 22 22 21 21 20 19 18 18 18 17
1 1 1 1 2 2 3 3 2 3 3 2 3 3 4 6 7 7 7 7 9 11 10 11 8 8 9 19 21 21 22 22 21 22 22 21 21 20 20 19 19 18 18
3 2 3 3 3 2 3 3 3 2 3 2 2 2 3 3 5 8 6 7 9 8 10 12 9 9 8 6 11 20 21 21 21 21 21 21 20 20 20 20 19 19 18
4 4 4 4 4 3 3 4 3 3 3 3 2 2 2 3 3 3 5 6 6 6 8 8 10 11 11 8 8 15 20 19 19 20 20 20 19 19 19 20 20 19 19
5 5 4 4 4 4 4 4 3 3 3 3 2 3 3 2 2 3 2 3 5 6 7 7 9 10 10 8 9 13 17 18 19 20 19 19 19 18 19 20 21 20 20
5 5 4 3 4 3 4 4 3 3 2 3 2 2 2 3 3 2 3 3 2 3 4 5 6 7 8 8 7 11 15 17 17 18 18 18 18 18 19 20 21 21 21
4 5 4 3 3 3 4 4 4 3 3 3 3 3 2 2 2 2 3 3 2 3 3 4 5 6 6 7 10 13 15 15 15 15 16 16 17 18 19 20 20 21 21
4 5 5 3 3 3 4 4 4 4 4 4 4 3 3 3 2 2 2 2 2 2 2 2 3 5 5 5 6 12 12 13 13 14 14 14 15 15 16 17 18 18 19
4 5 5 4 4 4 5 4 3 4 4 4 5 4 3 3 3 3 2 2 2 2 1 2 1 2 3 4 6 9 6 11 11 11 12 12 12 13 14 15 15 15 15
5 5 5 5 5 5 5 4 4 5 4 5 5 5 4 3 3 3 3 3 2 2 2 1 0 0 1 3 6 5 5 7 9 9 9 10 10 11 12 12 13 13 13
5 6 6 6 6 6 5 5 4 5 5 5 4 5 5 4 3 3 3 3 3 3 2 2 1 1 2 4 6 5 6 9 7 7 7 7 8 9 10 11 11 11 11
6 6 6 6 6 6 6 5 6 6 6 6 6 6 6 5 4 3 3 3 4 3 4 2 1 1 2 5 5 5 5 5 4 7 7 6 7 7 8 8 9 9 9
6 7 6 7 7 7 6 6 7 7 6 7 7 6 7 5 5 4 3 4 4 4 4 3 1 1 2 5 6 6 5 5 4 7 8 7 7 7 8 8 8 8 8
7 7 7 7 8 8 7 7 7 7 7 8 7 7 7 7 7 5 5 4 4 4 4 3 2 2 2 4 6 6 6 4 5 7 8 9 9 9 9 8 8 8 8
7 7 7 8 8 8 8 8 8 8 8 8 8 8 8 8 8 7 6 6 5 4 4 3 3 3 3 4 5 6 5 3 4 4 6 7 9 10 10 9 9 9 9
8 7 7 8 8 7 8 9 8 9 8 8 7 7 8 11 12 10 7 6 5 4 4 4 4 4 5 6 6 4 6 5 3 3 4 4 4 5 5 7 8 10 10
7 7 8 8 9 9 11 13 10 7 7 7 7 7 8 10 12 15 14 12 10 7 6 5 5 6 6 6 5 7 7 6 4 3 4 3 3 4 3 3 6 9 10
7 8 8 8 9 11 15 16 17 10 8 8 8 7 8 8 9 7 11 14 13 12 10 7 6 6 6 7 9 10 8 6 4 7 5 4 3 3 3 4 7 9 9
7 7 8 8 9 11 14 15 16 11 8 9 9 9 8 7 7 7 7 7 7 8 10 7 6 6 5 6 9 9 9 6 5 5 5 4 3 3 3 3 6 8 9
8 8 8 8 9 11 13 14 13 6 7 9 9 9 9 8 11 11 7 7 6 6 8 10 8 7 8 9 8 8 10 9 6 5 3 5 4 3 2 2 3 7 8
8 8 8 8 8 9 11 13 12 5 7 7 7 8 12 11 12 13 8 8 8 6 6 6 6 7 7 8 12 11 11 10 8 5 5 5 5 5 4 2 2 2 4
Wind_Direction
207 207 220 232 233 213 214 225 226 229 230 228 227 227 228 227 226 226 235 240 229 213 207 205 204 208 209 204 202 202 202 201 199 197 198 198 196 195 194 192 190 188 186
181 191 218 223 242 233 226 223 228 232 232 228 232 233 232 229 226 225 227 233 227 221 213 210 209 213 214 212 207 205 205 204 202 200 200 200 200 198 198 196 195 193 191
152 164 202 239 238 231 234 236 234 232 238 238 238 239 237 231 227 228 228 225 225 225 220 213 211 215 216 217 213 210 207 206 203 202 202 202 202 200 199 198 197 196 194
148 152 181 244 258 252 246 247 238 234 240 241 242 243 239 230 231 228 225 224 223 227 224 217 213 217 219 219 217 214 211 208 206 204 204 204 204 202 201 200 200 198 197
147 150 198 251 276 280 268 269 265 247 250 250 250 244 236 230 229 230 224 222 221 223 221 219 218 220 221 222 219 217 214 211 208 206 206 207 206 204 202 202 201 200 200
176 166 201 253 262 277 281 276 276 266 255 254 264 261 245 237 230 228 225 222 220 223 221 218 218 225 226 224 221 219 217 214 211 210 210 210 208 205 203 204 203 203 203
271 227 237 252 247 245 257 268 271 277 270 256 265 276 264 244 237 233 226 222 221 222 219 215 212 215 223 224 222 220 218 217 214 213 212 211 210 205 203 205 205 205 205
304 277 249 246 243 242 256 258 253 267 268 240 231 267 285 282 247 233 222 222 225 220 220 216 212 211 213 210 215 218 218 218 218 216 214 212 210 206 204 205 206 207 207
298 285 270 253 242 226 236 245 237 240 265 267 223 225 245 259 285 256 227 226 224 218 219 213 211 211 210 206 206 214 216 215 216 217 215 212 209 205 204 205 206 208 209
303 296 284 266 247 232 229 239 231 225 238 267 267 240 235 251 272 303 287 238 228 221 218 219 214 211 207 202 205 205 210 211 214 217 216 213 209 205 205 207 208 209 211
307 307 303 284 265 248 238 236 237 233 228 238 244 253 255 253 239 254 290 302 286 242 222 217 207 206 203 199 200 205 206 207 209 212 213 211 208 206 207 209 212 213 213
305 307 305 300 283 268 255 244 234 234 238 242 243 235 229 241 238 233 258 279 281 277 250 226 208 203 195 191 199 199 201 202 204 206 208 207 206 206 208 211 215 217 217
295 297 300 292 288 281 272 257 245 243 240 243 244 243 233 229 220 219 245 265 274 280 273 248 219 196 184 174 186 186 193 194 197 200 203 204 204 205 206 207 212 215 216
266 276 280 274 273 274 276 262 254 250 244 243 249 245 245 239 219 208 215 227 266 279 284 271 302 195 165 161 165 161 170 180 184 190 194 197 199 201 202 203 206 207 210
271 280 280 278 277 274 269 262 251 253 248 243 243 241 241 245 233 218 213 206 207 237 256 262 295 48 141 136 147 137 134 153 164 173 180 187 192 195 196 197 200 202 205
273 282 282 278 275 271 266 258 254 251 246 246 239 238 238 237 235 224 218 212 201 206 235 244 225 170 148 135 125 119 117 127 135 149 163 173 180 188 192 194 195 196 197
269 270 271 274 275 272 266 258 253 255 250 251 247 238 238 232 231 224 216 209 201 194 229 250 230 126 122 132 121 110 105 102 108 125 135 144 154 161 167 173 177 179 181
264 261 262 265 267 270 263 256 257 259 247 248 247 239 239 235 230 223 213 218 212 200 207 229 207 163 131 142 136 127 117 109 101 109 116 120 127 134 138 145 151 154 158
264 262 258 258 260 261 260 255 250 250 244 240 239 235 235 227 230 223 213 216 217 214 197 197 200 172 131 139 135 122 113 104 102 105 100 101 107 111 115 123 131 137 141
264 262 259 255 254 254 255 255 253 250 247 242 236 232 230 221 221 220 218 213 211 208 194 189 185 174 154 145 142 139 129 113 109 104 93 93 98 97 102 111 118 124 127
271 263 262 261 257 255 256 253 249 253 248 247 244 235 232 231 225 214 213 206 200 199 193 187 190 180 171 162 162 151 142 129 98 111 109 92 90 88 87 100 111 120 122
271 268 264 263 261 265 267 263 257 251 244 241 244 241 242 244 239 224 218 209 196 192 193 189 194 189 188 172 160 155 148 151 148 151 122 101 89 89 76 77 107 116 120
273 271 267 262 260 261 262 262 261 254 241 237 233 231 243 242 229 219 218 217 211 205 196 189 193 198 187 181 170 166 167 164 150 154 133 112 93 81 65 79 105 114 120
274 270 269 266 263 266 263 260 259 255 243 237 232 224 224 232 227 211 206 205 207 208 204 197 194 196 189 183 182 172 160 140 113 142 136 119 111 87 68 63 95 113 120
279 273 270 268 266 269 267 263 259 249 240 238 233 228 220 219 220 208 194 195 203 215 215 205 198 196 189 187 178 164 160 160 152 157 143 121 126 108 83 61 81 109 120
277 279 278 273 268 269 271 270 264 241 236 237 235 233 227 218 214 203 189 188 199 205 194 195 201 202 197 194 189 184 175 172 159 154 157 129 135 134 121 93 78 90 105